www.pogodaiklimat.ru

Погода и климат >> Архив погоды >> КНДР >> Хесен


ПОГОДА в Хесене

  • Прогноз погоды в Хесене
  • Монитор погоды в Хесене

АРХИВ ПОГОДЫ в Хесене

Время (UTC), дата Ветер
(напр.,м/с)
 
Видим.   Явления Облачность Т
(С)
Тd
(С)
f
(%)
Тe
(С)
Тes
(С)
Комфортность P
(гПа)
Po
(гПа)
Тmin
(С)
Tmax
(С)
R
(мм)
R24
(мм)
S
(см)
03 17.07 штиль 0 20 км 6/3 300 м
[Sc Ci]
+25.4 +16.3 57 +29 +45 душно 1012.2 929.7
06 17.07 З 1 20 км 10/4 300 м
[Sc Ac trans]
+27.6 +16.7 51 +31 +35 душно 1009.8 927.5
09 17.07 З 2 20 км 10/3 300 м
[Sc Ac trans]
+25.6 +17.3 60 +30 +30 душно 1009.1 927.0
12 17.07 штиль 0 20 км 10/10 300 м
[Sc]
+23.6 +16.9 66 +27 +27 жарко 1011.0 928.7 +28.1
15 17.07 штиль 0 20 км в посл. час дождь 10/10 300 м
[Sc]
+20.9 +18.5 86 +25 +25 комфорт 1012.0 929.6 0.0
18 17.07 штиль 0 20 км 10/10 300 м
[Sc]
+18.9 +17.1 89 +20 +20 1011.4 929.0 0.6
21 17.07 СВ 1 20 км 10/10 300 м
[Sc]
+18.1 +16.6 91 +19 +19 1011.8 929.3
00 18.07 штиль 0 20 км 10/8 300 м
[St Cs]
+21.1 +18.2 84 +25 +27 комфорт 1011.4 929.0 +17.8
03 18.07 Ю 1 20 км 5/5 300 м
[Cu med, cong]
+25.4 +17.6 62 +30 +41 душно 1009.9 927.6
06 18.07 З 4 20 км 8/5 300 м
[Sc Ac trans Ci sp]
+26.6 +15.0 49 +29 +33 жарко 1008.5 926.4
09 18.07 З 3 20 км 1/1 300 м
[Sc]
+27.4 +16.4 51 +31 +33 душно 1007.7 925.6
12 18.07 С 1 20 км 5/5 300 м
[Sc]
+23.0 +18.4 75 +29 +29 очень
душно
1009.6 927.5 +28.5
15 18.07 С 2 10 км 5/5 300 м
[St]
+19.7 +17.4 87 +23 +23 комфорт 1010.2 927.9
18 18.07 С 2 20 км 10/10 300 м
[Sc]
+17.7 +16.3 92 +18 +18 1010.8 928.5
21 18.07 СВ 1 4000 м 10/10 300 м
[St]
+17.5 +16.0 91 +19 +19 1011.2 928.8
00 19.07 С 2 10 км 10/10 300 м
[Sc]
+19.1 +16.6 85 +21 +21 комфорт 1011.7 929.3 +17.3
03 19.07 Ю 1 20 км ясно +25.6 +16.8 58 +29 +52 опасность
солнечного
удара
1010.1 927.8
06 19.07 СЗ 2 20 км 1/1
[Cb calv]
+29.9 +15.9 43 +33 +45 душно 1007.8 925.5
09 19.07 штиль 0 20 км 3/1 300 м
[Cb calv Ci fib]
+31.7 +15.5 38 +34 +37 душно 1006.6 924.6
12 19.07 Ю 1 20 км 6/6 300 м
[Cb calv]
+26.2 +17.1 57 +30 +30 душно 1008.8 926.7 +32.3
15 19.07 С 2 20 км 3/0 1500 м
[Ac trans]
+21.5 +17.6 78 +26 +26 душно 1010.2 927.9
18 19.07 С 2 20 км ясно +18.7 +16.5 87 +20 +20 1010.7 928.4
21 19.07 С 1 20 км ясно +17.4 +15.7 90 +18 +19 1011.4 929.0
00 20.07 штиль 0 20 км ясно +22.2 +15.7 67 +26 +39 душно 1010.7 928.4 +16.9
03 20.07 ЮВ 5 20 км 4/4 300 м
[Sc]
+28.5 +17.6 52 +33 +39 очень
душно
1009.8 927.5
06 20.07 Ю 4 20 км 8/8 300 м
[Sc]
+27.5 +18.0 56 +32 +34 очень
душно
1009.0 926.8
09 20.07 ЮВ 5 20 км 9/9 300 м
[Cb cap]
+26.4 +17.5 58 +31 +31 душно 1008.4 926.3
12 20.07 ЮВ 2 20 км 8/8 300 м
[Sc]
+24.6 +17.7 65 +29 +29 душно 1007.7 925.6 +30.5
15 20.07 штиль 0 20 км 3/3 300 м
[Sc]
+22.1 +18.4 80 +27 +27 душно 1007.3 925.3
18 20.07 СВ 1 20 км в посл. час дождь 9/9 300 м
[Sc]
+20.9 +18.5 86 +26 +26 душно 1006.2 924.3 0.1
21 20.07 штиль 0 20 км 9/9 300 м
[Sc]
+20.5 +18.7 89 +24 +24 комфорт 1005.4 923.5
00 21.07 З 1 20 км 8/8 300 м
[Sc]
+23.4 +19.2 77 +30 +32 очень
душно
1004.4 922.7 +20.0
03 21.07 СЗ 2 20 км в посл. час дождь 10/10 300 м
[Sc]
+25.8 +19.4 68 +31 +31 очень
душно
1003.8 922.1 0.0
06 21.07 ЮЗ 2 20 км слаб. дождь 10/10 300 м
[Sc]
+23.2 +21.4 90 +31 +31 очень
душно
1001.8 920.3 0.4
09 21.07 СЗ 1 20 км слаб. дождь 10/10 300 м
[Sc]
+23.1 +21.6 91 +31 +31 очень
душно
1000.7 919.3 1
12 21.07 штиль 0 20 км слаб. дождь 10/10 300 м
[Sc]
+20.1 +18.6 91 +23 +23 комфорт 1001.7 920.3 +26.0 5
15 21.07 З 2 20 км слаб. дождь 10/10 300 м
[Sc]
+19.3 +17.5 89 +22 +22 комфорт 1001.9 920.4 5
18 21.07 З 2 20 км дождь 10/10 300 м
[Sc]
+19.5 +17.3 87 +22 +22 комфорт 1001.7 920.2 3
21 21.07 ЮЗ 2 20 км дождь 10/10 300 м
[Sc]
+19.5 +18.0 91 +22 +22 комфорт 1001.9 920.3 13
00 22.07 З 4 20 км в посл. час дождь 9/9 300 м
[Sc]
+20.7 +17.4 81 +24 +25 комфорт 1004.7 922.7 +19.3 19
03 22.07 З 4 20 км в посл. час ливневой дождь 8/8 300 м
[Cb calv]
+23.8 +17.7 69 +28 +31 душно 1003.9 922.2 0.0
06 22.07 З 4 20 км {дождь} 8/8 300 м
[Cb calv]
+27.6 +19.1 60 +33 +35 очень
душно
1003.2 921.5 0.0
09 22.07 Ю 2 20 км 1/1 300 м
[Sc]
+28.1 +19.5 60 +34 +36 очень
душно
1002.7 921.1
12 22.07 штиль 0 20 км 1/1 300 м
[Sc]
+23.2 +19.6 80 +30 +30 очень
душно
1004.1 922.4 +29.0
15 22.07 штиль 0 20 км 3/0 1500 м
[Ac trans]
+20.9 +19.2 90 +25 +25 комфорт 1005.6 923.7
18 22.07 С 1 20 км 1/0 1500 м
[Ac trans]
+18.9 +17.7 93 +21 +21 комфорт 1005.6 923.7
21 22.07 С 1 3000 м 8/8 300 м
[St]
+18.1 +17.3 95 +19 +20 1006.3 924.4
00 23.07 штиль 0 20 км 4/1 300 м
[Sc Ac trans Ci sp]
+20.9 +18.5 86 +25 +35 комфорт 1006.6 924.6 +18.0
03 23.07 З 3 20 км 9/0 1500 м
[Ac As Ci sp]
+28.5 +18.7 55 +34 +42 очень
душно
1005.5 923.6
06 23.07 З 4 20 км 8/0 1500 м
[Ac trans Ci fib]
+30.7 +18.7 49 +36 +42 очень
душно
1004.0 922.3
09 23.07 штиль 0 20 км 10/0 1500 м
[Ac As]
+27.4 +18.5 58 +32 +33 очень
душно
1003.7 922.0
12 23.07 штиль 0 20 км 10/0 1500 м
[As trans]
+24.2 +19.4 75 +29 +29 душно 1004.1 922.4 +31.0
15 23.07 З 2 20 км слаб. дождь 10/10 300 м
[Sc]
+21.9 +20.2 90 +28 +28 душно 1005.7 923.8 0.7
18 23.07 СВ 1 20 км слаб. дождь 10/10 300 м
[Sc]
+21.3 +19.6 90 +26 +26 душно 1004.8 923.0 2
21 23.07 штиль 0 10 км слаб. дождь 10/10 300 м
[Sc]
+20.3 +19.5 95 +24 +24 комфорт 1004.7 922.9 2

 

Местоположение метеостанции Хесен (КНДР): широта 41.40 долгота 128.16 высота над уровнем моря 714 м.

В архиве по умолчанию представлена погода в Хесене за последнюю неделю. Архивные данные за месяц целиком и за предыдущие месяцы, начиная с января 2011 года, Вы можете получить, выбрав интересующий диапазон дат из раскрывающегося списка и нажав кнопку "Ввод!".


*Определитесь, кто Вы:
робот инопланетянин человек

Внимание! Время в таблицах - всемирное. Для получения местного времени необходимо прибавить поправку, которая равна 9 ч.

Смотрите также архив погоды в соседних городах и на ближайших метеорологических станциях:

Погода в Чанбае (Гирин, Китай) (6 км)
Погода в Самджиёне (КНДР) (48 км)
Погода в Пунгсане (КНДР) (65 км)
Погода в Линьцзяне (Гирин, Китай) (110 км)
Погода в Чунгане (КНДР) (115 км)
Погода в Кимчхэке (КНДР) (119 км)
Погода в Джангджине (КНДР) (138 км)
Погода в Канге (КНДР) (139 км)
Погода в Чхонджине (КНДР) (144 км)
Погода в Синпхо (КНДР) (152 км)

Пояснения к столбцам:

Ветер - указаны скорость ветра в м/с - средняя за 10 мин, порывы в срок и между сроками (в фигурных скобках) и направление, откуда дует ветер: С - северный, СВ - северо-восточный, В - восточный, ЮВ - юго-восточный, Ю - южный, ЮЗ - юго-западный, З - западный, СЗ - северо-западный.
Видимость - горизонтальная дальность видимости в метрах или километрах. При видимости от 1 до 10 км при отсутствии осадков обычно наблюдается дымка, при ухудшении видимости до 1 км и менее - туман. В сухую погоду видимость может ухудшаться дымом, пылью или мглою.
Явления - указаны атмосферные явления, наблюдавшиеся в срок или в последний час перед сроком; фигурными скобками обозначены явления, наблюдавшиеся между сроками (за 1-3 часа до срока); квадратными скобками обозначены град или гололедные отложения с указанием их диаметра в мм.
Облачность - указаны через наклонную черту общая и нижняя облачность в баллах и высота нижней границы облаков в метрах; квадратными скобками обозначены формы облаков: Ci - перистые, Cs - перисто-слоистые, Cc - перисто-кучевые, Ac - высококучевые, As - высокослоистые, Sc - слоисто-кучевые, Ns - слоисто-дождевые, Cu - кучевые, Cb - кучево-дождевые. Подробнее классификацию облаков см. в Атласе облаков (PDF).
T - Температура воздуха - температура, измеренная на высоте 2 м над землей.
Td - Температура точки росы - температура, при понижении до которой содержащийся в воздухе водяной пар достигнет насыщения.
f - Относительная влажность воздуха - влажноcть воздуха, измеренная на высоте 2 м над землей.
Te - Эффективная температура - температура, которую ощущает одетый по сезону человек в тени. Характеристика душности погоды. При расчете учитывается влияние влажности воздуха и скорости ветра на теплоощущения человека.
Tes - Эффективная температура на солнце - температура, которую ощущает человек, с поправкой на солнечный нагрев. Характеристика знойности погоды. Зависит от высоты солнца над горизонтом, облачности и скорости ветра. Ночью, в пасмурную погоду, а также при ветре 12 м/с и более поправка равна нулю.
P - Атмосферное давление - приведенное к уровню моря атмосферное давление.
Po - Атмосферное давление - измеренное на уровне метеостанции атмосферное давление.
Tmin - Минимальная температура - минимум температуры воздуха на высоте 2 м над землей.
Tmax - Максимальная температура - максимум температуры воздуха на высоте 2 м над землей.
R - Количество осадков - Количество выпавших осадков за период времени, мм. При наведении курсора мыши на число - период времени, за который выпало указанное количество осадков.
R24 - Количество осадков - Количество выпавших осадков за 24 часа, мм.
S - Снежный покров - Высота снежного покрова, см. При наведении курсора мыши на число - состояние снежного покрова и степень покрытия местности в баллах.